Location: Kellogg
(38.0159°N, 90.0546°W)
Time: 15:03:54
(UTC+00:00)

Courier 1B - Pass Details

Date: 14 September 2024
Orbit: 962 x 1208 km, 28.3° (Epoch: 11 October)

Event Time Altitude Azimuth Distance (km) Brightness Sun altitude
Rises 01:51:31 0° 263° (W) 4,095 11.8 -20.2°
Reaches altitude 10° 01:55:13 10° 248° (WSW) 3,139 10.8 -20.9°
Maximum altitude 02:00:34 20° 205° (SSW) 2,458 9.6 -21.9°
Enters shadow 02:04:21 14° 171° (S) 2,806 9.6 -22.5°
